Вернуться в каталог

STARLINK-4394

АктивенСвязьSSO
NORAD 53467·PAYLOAD·🇺🇸 United States

Запущен Aug 12, 2022 с Vandenberg Space Force Base

Loading…

Ближайшие Пролёты (ближайшие 24 часа)

TLE

СвежийSource: CelesTrak SupGP

Эпоха: Sep 14, 2026, 22:00 UTC

1 53467C 22099C   26257.91715278 -.00030352  00000+0 -84229-3 0  2578
2 53467  97.5442  27.9654 0001290  94.9357  97.5899 15.36979200    10

Отслеживайте STARLINK-4394 в реальном времени с AllMySat

Download on the App Store